Regional Weather Roundup
Issued by NWS

Home | Current Version | Previous Version | Graphics & Text | Print | Product List | Glossary Off
Versions: 1 2 3 4 5 6 7 8 9 10 11 12 13 14 15 16 17 18 19 20 21 22 23 24 25 26 27 28 29 30 31 32 33 34 35 36 37 38 39 40 41 42 43 44 45 46 47 48 49 50

000
ASUS43 KDMX 040907
RWRIA

WEATHER ROUNDUP FOR IOWA
NATIONAL WEATHER SERVICE DES MOINES IA
400 AM CDT FRI SEP 04 2015

NOTE: "FAIR" INDICATES FEW OR NO CLOUDS BELOW 12,000 FEET WITH NO
SIGNIFICANT WEATHER AND/OR OBSTRUCTIONS TO VISIBILITY.

* - THESE STATIONS ARE NOT NWS STATIONS...THUS NOT UNDER NWS
QUALITY CONTROL.  THEY ALSO DO NOT REPORT WEATHER SUCH
AS PRECIPITATION OR FOG.

IAZ001>003-012>014-020>022-031>034-043>046-041000-
   NORTHWEST IOWA

CITY           SKY/WX    TMP DP  RH WIND       PRES   REMARKS
CARROLL *      CLEAR     70  68  94 S8        29.90S
CHEROKEE *     CLEAR     72  70  94 S6        29.87S
DENISON *      CLEAR     73  68  83 S10G16    29.87S
LE MARS *      CLEAR     75  68  78 SE7       29.84S
ORANGE CITY *  CLEAR     73  70  88 S7        29.84F
SHELDON *      CLEAR     73  70  88 S9        29.84S
SIOUX CITY     PTCLDY    72  67  84 SE9       29.82S
SPENCER        PTCLDY    72  68  87 S7        29.88S
STORM LAKE *   CLEAR     70  68  94 SE9       29.90S
$$

IAZ055>058-069>071-079>083-090>094-041000-
   SOUTHWEST IOWA

CITY           SKY/WX    TMP DP  RH WIND       PRES   REMARKS
ATLANTIC *     CLEAR     72  68  88 S6        29.91R
AUDUBON *      CLEAR     70  66  88 CALM      29.92S
CLARINDA *     CLEAR     70  68  94 S5        29.93R
COUNCIL BLFS * CLEAR     72  68  88 S12       29.88S
CRESTON *      CLEAR     70  68  94 SE8       29.95S
LAMONI         CLEAR     71  67  87 S5        29.95R
RED OAK *      CLEAR     72  68  88 S3        29.90S
SHENANDOAH *   CLEAR     73  70  88 S6        29.90S
$$

IAZ047>049-059>061-072>074-084-041000-
   CENTRAL IOWA

CITY           SKY/WX    TMP DP  RH WIND       PRES   REMARKS
AMES           PTCLDY    68  67  96 SE3       29.93R
ANKENY *       CLEAR     70  70 100 CALM      29.92S
CHARITON *     CLEAR     70  68  94 SE5       29.95S
DES MOINES     PTCLDY    73  67  81 S7        29.92S
GRINNELL*      PTCLDY    72  66  83 S5        29.95R
KNOXVILLE *    CLEAR     72  66  83 S8        29.92S
MARSHALLTOWN   CLEAR     72  69  90 SW6       29.92F
PELLA *        PTCLDY    70  70 100 S3        29.94S
PERRY *          N/A     72  70  94 S6        29.92R
$$

IAZ004>006-015-016-023>025-035-036-041000-
   NORTH CENTRAL IOWA

CITY           SKY/WX    TMP DP  RH WIND       PRES   REMARKS
ALGONA *       CLEAR     73  70  88 S9        29.91R
CLARION *      CLEAR     72  68  88 S8        29.92S
ESTHERVILLE    PTCLDY    71  69  93 S9        29.89R
FORT DODGE *   CLEAR     73  66  78 S7        29.92S
MASON CITY     PTCLDY    69  68  96 S5        29.95R
FOREST CITY *  PTCLDY    70  70 100 SE3       29.93S
IOWA FALLS *     N/A     72  70  94 S3        29.94S
$$

IAZ007>011-017>019-026>030-037>042-050>054-066-041000-
   NORTHEAST IOWA

CITY           SKY/WX    TMP DP  RH WIND       PRES   REMARKS
CEDAR RAPIDS   MOCLDY    72  69  90 CALM      29.94R
CHARLES CITY * CLEAR     72  72 100 E6        29.95S
CLINTON *      CLEAR     70  68  94 NE6       29.98R
DECORAH *      CLOUDY    72  72 100 SE5       29.97R FOG
DUBUQUE        FOG       72  71  97 NE3       29.97F VSB 1/4
MONTICELLO *   CLEAR     68  68 100 E5        29.95R
OELWEIN *        N/A    N/A N/A N/A SE5       29.96R
WATERLOO       PTCLDY    72  68  87 SE5       29.92F
$$

IAZ064-065-067-068-078-041000-
   EAST CENTRAL IOWA

CITY           SKY/WX    TMP DP  RH WIND       PRES   REMARKS
DAVENPORT      CLEAR     69  67  93 CALM      29.96R
IOWA CITY      MOCLDY    72  70  93 CALM      29.95R
MT. PLEASANT * PTCLDY    72  66  83 CALM      29.95S
MUSCATINE *    PTCLDY    68  66  94 CALM      29.95R
QUAD CITIES    CLEAR     71  67  87 CALM      29.95R
$$

IAZ062-063-075>077-085>089-095>099-041000-
   SOUTHEAST IOWA

CITY           SKY/WX    TMP DP  RH WIND       PRES   REMARKS
BURLINGTON     CLEAR     72  69  90 SW3       29.96R
FAIRFIELD *    CLEAR     72  66  83 CALM      29.95R
FORT MADISON * PTCLDY    72  70  94 CALM      29.97R
KEOKUK *       CLEAR     72  68  88 CALM      29.95S
OSKALOOSA *      N/A     70  66  88 S5        29.94S
CENTERVILLE *  CLEAR     68  66  94 S5        29.97S
OTTUMWA        PTCLDY    71  68  90 S8        29.93S
WASHINGTON *     N/A    N/A N/A N/A MISG        N/A
$$

ABBREVIATIONS USED IN REMARKS
   TC - TEMPERATURES IN CELSIUS
  WCI - WIND CHILL INDEX
   HX - HEAT INDEX
  VSB - VISIBILITY
$$




USA.gov is the U.S. government's official web portal to all federal, state and local government web resources and services.